User: anonymous   Login
Location: Unspecified
(0.0000°N, 0.0000°E)
Time: 00:10:27
(UTC+00:00)
Language:

TBA - TO BE ASSIGNED - Orbit

View from above orbital plane
View from above orbital plane
View from above satellite
View from above satellite

Ground track
Ground track

The orbit is defined by the following mean orbital elements,

1 68084U          26145.48168723 +.00000000 +00000-0 +77289-3 0 00002
2 68084  53.1586 181.2304 0001213  81.2933 278.8207 15.34391763    04
Epoch (UTC): 25 May 2026 11:33:37
Eccentricity: 0.0001213
inclination: 53.1586°
perigee height: 462 km
apogee height: 464 km
right ascension of ascending node: 181.2304°
argument of perigee: 81.2933°
revolutions per day: 15.34391763
mean anomaly at epoch: 278.8207°

The dashed part of the orbit path shows where the satellite is in the earth's shadow,  

DLR